This demonstration page uses our WeatherBlox Daily Observations layout. Learn more.

Left ArrowRight Arrow

34.16533, -84.80231

Hourly Observations for August 24, 2018

Temp ( °F °C ) Dew Point ( °F °C ) Humidity (%) Winds ( mph kmh ) Pressure ( in mb ) Visibility ( mi km ) Precip ( " mm )
12:53 am 00:53 Clear 62 16.7 62 16.7 100 100 Calm 30.07 1018 9 14 0.00 0.00
1:53 am 01:53 Clear 62 16.7 62 16.7 100 100 Calm 30.07 1018 8 13 0.00 0.00
2:53 am 02:53 Clear 61 16.1 61 16.1 100 100 Calm 30.06 1018 8 13 0.00 0.00
3:53 am 03:53 Clear 64 17.8 63 17.2 96 96 ESE 3 6 30.05 1018 9 14 0.00 0.00
4:53 am 04:53 Clear 64 17.8 60 15.6 87 87 VRB 3 6 30.06 1018 10 16 0.00 0.00
5:53 am 05:53 Clear 64 17.8 58 14.4 81 81 ESE 3 6 30.07 1018 10 16 0.00 0.00
6:53 am 06:53 Clear 63 17.2 58 14.4 84 84 ESE 5 7 30.09 1019 10 16 0.00 0.00
7:53 am 07:53 Sunny 65 18.3 58 14.4 78 78 E 6 9 30.11 1020 10 16 0.00 0.00
8:53 am 08:53 Sunny 68 20 58 14.4 70 70 E 6 9 30.13 1020 10 16 0.00 0.00
9:53 am 09:53 Sunny 72 22.2 60 15.6 66 66 VRB 6 9 30.15 1021 10 16 0.00 0.00
10:53 am 10:53 Sunny 76 24.4 61 16.1 60 60 VRB 7 11 30.16 1022 10 16 0.00 0.00
11:53 am 11:53 Partly Cloudy 78 25.6 63 17.2 60 60 SE 12 19 30.17 1022 10 16 0.00 0.00
12:53 pm 12:53 Partly Cloudy 79 26.1 64 17.8 60 60 VRB 7 11 30.16 1021 9 14 0.00 0.00
1:53 pm 13:53 Mostly Cloudy 79 26.1 63 17.2 58 58 E 6 9 30.14 1021 10 16 0.00 0.00
2:53 pm 14:53 Sunny 82 27.8 63 17.2 53 53 E 8 13 30.11 1020 9 14 0.00 0.00
3:53 pm 15:53 Partly Cloudy 82 27.8 63 17.2 53 53 E 7 11 30.10 1019 10 16 0.00 0.00
4:53 pm 16:53 Mostly Sunny 82 27.8 63 17.2 53 53 SE 6 9 30.09 1019 10 16 0.00 0.00
5:53 pm 17:53 Sunny 81 27.2 63 17.2 54 54 VRB 5 7 30.09 1019 10 16 0.00 0.00
6:53 pm 18:53 Sunny 80 26.7 64 17.8 58 58 ENE 5 7 30.09 1019 10 16 0.00 0.00
7:53 pm 19:53 Sunny 76 24.4 65 18.3 69 69 E 3 6 30.09 1019 10 16 0.00 0.00
8:53 pm 20:53 Clear 71 21.7 65 18.3 81 81 Calm 30.11 1020 10 16 0.00 0.00
9:53 pm 21:53 Clear 72 22.2 62 16.7 71 71 E 3 6 30.13 1020 10 16 0.00 0.00
10:53 pm 22:53 Clear 71 21.7 61 16.1 71 71 ESE 6 9 30.13 1020 10 16 0.00 0.00
11:53 pm 23:53 Clear 69 20.6 61 16.1 76 76 Calm 30.14 1021 10 16 0.00 0.00

Powered by AerisWeather